Flag for Canada Weather past 2 weeks in Kamloops, British Columbia, Canada

Now
25 °F

Scattered clouds.


Feels Like: 16 °F
Forecast: 20 / 45 °F
Wind: 8 mph from Southeast

Location: Kamloops

Current Time: Mar 4, 2015 at 9:23:03 AM

Latest Report: Mar 4, 2015 at 9:00 AM


Visibility: 40 mi

Pressure: 30.42 "Hg

Humidity: 50%

Dew point: 9 °F

Location of KamloopsLocation

Historic Weather in Kamloops — Graph

°F

Kamloops temperature yesterday

Maximum temperature yesterday: 43 °F (at 4:00 PM)
Minimum temperature yesterday: 23 °F (at 6:00 AM)
Average temperature yesterday: 31 °F

Past Weeks' High & Low Weather Summary

 TemperatureHumidityPressure
High50 °F (Feb 20, 1:00 PM)93% (Feb 17, 8:00 AM)30.60 "Hg (Feb 17, 8:00 AM)
Low19 °F (Mar 4, 3:00 AM)13% (Mar 3, 4:00 PM)29.98 "Hg (Feb 27, 1:00 AM)
Average36 °F60%30.29 "Hg
* Reported Feb 17 8:00 AM — Mar 4 8:00 AM, Kamloops, Weather by CustomWeather, © 2015

Note: Actual official high and low records may vary slightly from our data, if they occured in-between our weather recording intervals... More about our weather records

Advertising

Kamloops weather history for previous 24 hours

 ConditionsComfort  
Time TempWeatherWind HumidityBarometerVisibility
8:00 AM
Wed, Mar 4
21 °FBroken clouds.7 mph63%30.42 "Hg40 mi
7:00 AM19 °FPassing clouds.No wind63%30.41 "Hg40 mi
6:00 AM19 °FPassing clouds.No wind63%30.40 "Hg40 mi
5:00 AM19 °FPassing clouds.2 mph63%30.38 "Hg40 mi
4:00 AM19 °FClear.6 mph63%30.37 "Hg40 mi
3:00 AM19 °FClear.5 mph63%30.36 "Hg40 mi
2:00 AM21 °FClear.5 mph54%30.36 "Hg40 mi
1:00 AM23 °FClear.No wind50%30.35 "Hg40 mi
12:00 AM21 °FClear.6 mph54%30.34 "Hg40 mi
11:00 PM
Tue, Mar 3
23 °FClear.5 mph50%30.34 "Hg40 mi
10:00 PM27 °FClear.No wind36%30.33 "Hg40 mi
9:00 PM27 °FClear.No wind36%30.32 "Hg40 mi
8:00 PM30 °FClear.2 mph29%30.29 "Hg40 mi
7:00 PM32 °FClear.8 mph32%30.29 "Hg40 mi
6:00 PM36 °FPassing clouds.6 mph21%30.27 "Hg40 mi
5:00 PM39 °FPassing clouds.7 mph20%30.26 "Hg40 mi
4:00 PM43 °FSunny.13 mph13%30.26 "Hg40 mi
3:00 PM41 °FSunny.12 mph14%30.28 "Hg40 mi
2:00 PM41 °FSunny.15 mph17%30.30 "Hg40 mi
1:00 PM39 °FSunny.13 mph18%30.33 "Hg40 mi
12:00 PM36 °FSunny.14 mph21%30.36 "Hg40 mi
11:00 AM34 °FSunny.14 mph23%30.38 "Hg40 mi
10:00 AM30 °FSunny.9 mph26%30.40 "Hg40 mi
9:00 AM28 °FSunny.14 mph29%30.42 "Hg40 mi
Weather by CustomWeather, © 2015

See weather overviewHow to use our weather pages